Preview of NWS' New Version of Forecast
This preview is not operational and should not be used for support decisions.

Regional Weather Roundup (RWR)

Issued by National Weather Service (NWS)

                            
000
ASUS44 KMEG 230300
RWRTN 
TENNESSEE HOURLY STATE WEATHER ROUNDUP
NATIONAL WEATHER SERVICE MEMPHIS TN
1000 PM CDT SUN SEP 22 2019

TNZ002-004-019-021-049-052-054-088>092-230400-
WEST TENNESSEE
  
CITY           SKY/WX    TMP DP  RH WIND       PRES   REMARKS
MEMPHIS INTL   FAIR      79  66  64 S8        30.05R                  
NWS MEMPHIS      N/A     79 N/A N/A MISG        N/A                   
JACKSON        FAIR      75  64  68 S7        30.06R                  
DYERSBURG      FAIR      77  66  68 S5        30.04R                  
$$

TNZ008-025-027-028-033-062-065-066-230400-
NORTH MIDDLE TENNESSEE
  
CITY           SKY/WX    TMP DP  RH WIND       PRES   REMARKS
NASHVILLE      FAIR      74  57  55 S5        30.08R                  
CLARKSVILLE    FAIR      77  61  57 SW8       30.05R                  
SMYRNA         FAIR      71  59  65 S3        30.09R                  
CROSSVILLE     FAIR      67  53  61 SW3       30.16S                  
$$

TNZ061-075-076-078-094-096-097-230400-
SOUTH MIDDLE TENNESSEE
  
CITY           SKY/WX    TMP DP  RH WIND       PRES   REMARKS
$$

TNZ017-018-042-046-047-230400-
NORTHEAST TENNESSEE
  
CITY           SKY/WX    TMP DP  RH WIND       PRES   REMARKS
TRI CITIES     FAIR      67  59  75 CALM      30.15R                  
$$

TNZ012-013-036-069-073-074-230400-
CENTRAL EAST TENNESSEE
  
CITY           SKY/WX    TMP DP  RH WIND       PRES   REMARKS
KNOXVILLE      FAIR      72  57  59 SW6       30.11R                  
OAK RIDGE      FAIR      69  58  67 CALM      30.12S                  
$$

TNZ083-085-099-230400-
SOUTHEAST TENNESSEE
  
CITY           SKY/WX    TMP DP  RH WIND       PRES   REMARKS
CHATTANOOGA    FAIR      75  58  55 S3        30.12R                  
$$

SKY/WX REPORTED AS FAIR MEANS FEW OR NO CLOUDS BELOW
12 THOUSAND FEET.